Ingonish Beach, Nova Scotia

12:36 AM AST on February 22, 2017 (GMT -0400)
Ingonish Beach

Weather History for CXIB - October, 2011

Change the Weather History Date:

Thursday, October 6, 2011

  Actual Average Record
Temperature  
Mean Temperature 38 °F -  
Max Temperature 40 °F - - ()
Min Temperature 36 °F - - ()
Degree Days  
Heating Degree Days 27    
Moisture  
Dew Point 36 °F    
Average Humidity 89    
Maximum Humidity 93    
Minimum Humidity 84    
Precipitation  
Precipitation 0.59 in - - ()
Sea Level Pressure  
Sea Level Pressure 29.53 in    
Wind  
Wind Speed 7 mph ()    
Max Wind Speed 12 mph    
Max Gust Speed 40 mph    
T = Trace of Precipitation, MM = Missing Value Source: Averaged Metar Reports

Daily Weather History Graph

Daily Weather History Graph

Search for Another Location

Airport or City:

Trip Planner

Search our weather history database for the weather conditions in past years. The results will help you decide how hot, cold, wet, or windy it might be!

Date:

Astronomy

Oct. 06, 2011 Rise Set
Actual Time 7:06 AM ADT 6:32 PM ADT
Civil Twilight 6:36 AM ADT 7:02 PM ADT
Nautical Twilight 6:01 AM ADT 7:37 PM ADT
Astronomical Twilight 5:25 AM ADT 8:12 PM ADT
Moon 3:58 PM ADT (10/6) 1:31 AM ADT (10/6)
Length of Visible Light 12h 26m
Length of Day
11h 25m
Waxing Gibbous, 75% of the Moon is Illuminated
Oct 6
Waxing Gibbous
Oct 11
Full
Oct 20
Last Quarter
Oct 26
New
Nov 2
First Quarter

Hourly Weather History & Observations

Time (ADT) Temp. Windchill Dew Point Humidity Pressure Visibility Wind Dir Wind Speed Gust Speed Precip Events Conditions
12:00 AM 39.7 °F 34.9 °F 37.0 °F 90% 29.24 in - WNW 6.9 mph 17.3 mph 0.09 in   Unknown
1:00 AM 39.0 °F 33.4 °F 36.5 °F 91% 29.24 in - NW 8.1 mph 20.7 mph 0.17 in   Unknown
2:00 AM 39.2 °F 33.6 °F 36.7 °F 91% 29.25 in - NW 8.1 mph 23.0 mph 0.15 in   Unknown
3:00 AM 39 °F - 36 °F 84% 29.26 in - NW 10.4 mph - -  
3:00 AM 38.8 °F 32.1 °F 35.8 °F 89% 29.26 in - NW 10.4 mph 26.5 mph 0.16 in   Unknown
5:00 AM 38.3 °F 30.9 °F 35.6 °F 90% 29.27 in - NW 11.5 mph 40.3 mph 0.16 in   Unknown
6:00 AM 38.3 °F 30.9 °F 35.6 °F 90% 29.31 in - NW 11.5 mph 27.6 mph 0.11 in   Unknown
7:00 AM 38.3 °F 31.9 °F 35.8 °F 91% 29.34 in - NW 9.2 mph 27.6 mph 0.07 in   Unknown
8:00 AM 38.5 °F 34.1 °F 36.1 °F 91% 29.38 in - NW 5.8 mph 18.4 mph 0.09 in   Unknown
9:00 AM 38 °F - 36 °F 89% 29.42 in - NW 10.4 mph - -  
9:00 AM 38.5 °F 31.6 °F 36.0 °F 91% 29.42 in - NW 10.4 mph 27.6 mph 0.11 in   Unknown
10:00 AM 39.0 °F 32.3 °F 36.3 °F 90% 29.47 in - NNW 10.4 mph 23.0 mph 0.08 in   Unknown
11:00 AM 39.6 °F 33.0 °F 36.3 °F 88% 29.50 in - NNW 10.4 mph 23.0 mph 0.04 in   Unknown
12:00 PM 39.9 °F 33.4 °F 36.5 °F 88% 29.54 in - NNW 10.4 mph 21.9 mph 0.04 in   Unknown
1:00 PM 39.4 °F 34.5 °F 36.1 °F 88% 29.58 in - NNW 6.9 mph - N/A   Unknown
2:00 PM 39.0 °F 34.0 °F 36.3 °F 90% 29.62 in - NNW 6.9 mph 18.4 mph 0.03 in   Unknown
3:00 PM 39 °F - 36 °F 84% 29.65 in - NNW 9.2 mph - -  
3:00 PM 39.0 °F 32.8 °F 35.8 °F 88% 29.65 in - NNW 9.2 mph 24.2 mph 0.03 in   Unknown
4:00 PM 37.6 °F 34.0 °F 35.2 °F 91% 29.69 in - NNW 4.6 mph - 0.03 in   Unknown
5:00 PM 37.8 °F 34.2 °F 35.4 °F 91% 29.72 in - NW 4.6 mph - N/A   Unknown
6:00 PM 37.0 °F 32.4 °F 35.1 °F 93% 29.75 in - NNW 5.8 mph 19.6 mph 0.07 in   Unknown
7:00 PM 36.9 °F 32.2 °F 34.3 °F 91% 29.79 in - NNW 5.8 mph 17.3 mph 0.06 in   Unknown
9:00 PM 38 °F - 35 °F 84% 29.85 in - NNW 5.8 mph - -  
9:00 PM 37.6 °F 33.1 °F 34.9 °F 90% 29.85 in - NNW 5.8 mph - N/A   Unknown
10:00 PM 37.6 °F 34.0 °F 35.2 °F 91% 29.87 in - NW 4.6 mph - N/A   Unknown
11:00 PM 37.6 °F 33.1 °F 34.9 °F 90% 29.89 in - NW 5.8 mph - 0.03 in   Unknown